Drummond Island, MI

1:59 PM EDT on June 25, 2017 (GMT -0400)
Drummond Island

Weather History for KDRM - February, 2013

Change the Weather History Date:

Wednesday, February 27, 2013

  Actual Average (KCIU) Record (KCIU)
Temperature  
Mean Temperature 32 °F -  
Max Temperature 34 °F 32 °F 43 °F (1979)
Min Temperature 29 °F 8 °F -16 °F (2014)
Degree Days  
Heating Degree Days 34    
Moisture  
Dew Point 29 °F    
Average Humidity 90    
Maximum Humidity 98    
Minimum Humidity 80    
Precipitation  
Precipitation 0.00 in - - ()
Sea Level Pressure  
Sea Level Pressure 29.72 in    
Wind  
Wind Speed 8 mph (NE)    
Max Wind Speed 10 mph    
Max Gust Speed 21 mph    
Visibility 6 miles    
Events Rain , Snow    
Averages and records for this station are not official NWS values.
T = Trace of Precipitation, MM = Missing Value Source: NWS Daily Summary

Daily Weather History Graph

Daily Weather History Graph

Search for Another Location

Airport or City:

Trip Planner

Search our weather history database for the weather conditions in past years. The results will help you decide how hot, cold, wet, or windy it might be!

Date:

Astronomy

Feb. 27, 2013 Rise Set
Actual Time 7:16 AM EST 6:18 PM EST
Civil Twilight 6:46 AM EST 6:49 PM EST
Nautical Twilight 6:12 AM EST 7:23 PM EST
Astronomical Twilight 5:37 AM EST 7:58 PM EST
Moon 8:50 PM EST (2/27) 7:42 AM EST (2/27)
Length of Visible Light 12h 02m
Length of Day
11h 02m
Waning Gibbous, 96% of the Moon is Illuminated
Feb 27
Waning Gibbous
Mar 4
Last Quarter
Mar 11
New
Mar 19
First Quarter
Mar 27
Full

Hourly Weather History & Observations

Time (EST) Temp. Windchill Dew Point Humidity Pressure Visibility Wind Dir Wind Speed Gust Speed Precip Events Conditions
12:16 AM 29.1 °F 20.0 °F 24.3 °F 82% 29.83 in 10.0 mi NE 10.4 mph 17.3 mph N/A   Clear
12:36 AM 29.3 °F 20.2 °F 24.4 °F 82% 29.82 in 10.0 mi NE 10.4 mph 18.4 mph N/A   Clear
12:56 AM 29.7 °F 22.0 °F 24.4 °F 81% 29.81 in 10.0 mi NE 8.1 mph - N/A   Clear
1:16 AM 29.8 °F 20.9 °F 24.4 °F 80% 29.80 in 10.0 mi NE 10.4 mph 19.6 mph N/A   Clear
1:36 AM 29.8 °F 23.0 °F 24.4 °F 80% 29.80 in 10.0 mi NE 6.9 mph 17.3 mph N/A   Scattered Clouds
1:56 AM 30.0 °F 22.4 °F 24.6 °F 80% 29.79 in 10.0 mi NE 8.1 mph - N/A   Overcast
2:16 AM 30.2 °F 24.3 °F 24.6 °F 80% 29.78 in 10.0 mi NE 5.8 mph - N/A   Overcast
2:36 AM 30.2 °F 23.4 °F 24.8 °F 80% 29.77 in 10.0 mi NE 6.9 mph 18.4 mph N/A   Overcast
2:56 AM 30.6 °F 21.8 °F 25.2 °F 80% 29.76 in 7.0 mi NE 10.4 mph 16.1 mph N/A Snow Light Snow
3:16 AM 30.0 °F 22.4 °F 26.4 °F 86% 29.75 in 1.8 mi NE 8.1 mph - N/A Snow Light Snow
3:36 AM 29.7 °F 22.0 °F 26.8 °F 89% 29.74 in 2.0 mi NE 8.1 mph 16.1 mph N/A Snow Light Snow
3:56 AM 29.3 °F 21.5 °F 27.3 °F 92% 29.73 in 2.0 mi NE 8.1 mph - N/A Snow Light Snow
4:16 AM 29.3 °F 22.3 °F 27.5 °F 93% 29.72 in 2.5 mi NE 6.9 mph 18.4 mph N/A Snow Light Snow
4:36 AM 29.3 °F 21.5 °F 27.5 °F 93% 29.72 in 2.5 mi NE 8.1 mph 17.3 mph N/A Snow Light Snow
4:56 AM 29.3 °F 21.5 °F 27.5 °F 93% 29.73 in 3.0 mi ENE 8.1 mph - N/A Snow Light Snow
5:16 AM 29.5 °F 20.4 °F 27.5 °F 92% 29.72 in 2.5 mi NE 10.4 mph 16.1 mph N/A Snow Light Snow
5:37 AM 29.3 °F 21.5 °F 27.9 °F 94% 29.72 in 2.5 mi NE 8.1 mph 19.6 mph N/A Snow Light Snow
5:56 AM 29.3 °F 21.5 °F 28.4 °F 96% 29.73 in 1.2 mi NE 8.1 mph 17.3 mph N/A Snow Light Snow
6:16 AM 29.1 °F 21.3 °F 28.4 °F 97% 29.73 in 1.0 mi NE 8.1 mph - N/A Snow Light Snow
6:36 AM 29.1 °F 21.3 °F 28.4 °F 97% 29.72 in 1.5 mi NE 8.1 mph - N/A Snow Light Snow
6:56 AM 29.3 °F 20.8 °F 28.8 °F 98% 29.72 in 2.0 mi NE 9.2 mph 17.3 mph N/A Snow Light Snow
7:16 AM 29.3 °F 22.3 °F 28.8 °F 98% 29.72 in 1.2 mi NE 6.9 mph 17.3 mph N/A Snow Light Snow
7:56 AM 29.7 °F 22.8 °F 29.1 °F 98% 29.72 in 1.0 mi NE 6.9 mph 17.3 mph N/A Snow Light Snow
8:16 AM 30.0 °F 21.7 °F 29.3 °F 97% 29.73 in 1.0 mi NE 9.2 mph 17.3 mph N/A Snow Light Snow
8:36 AM 30.2 °F 21.9 °F 29.3 °F 96% 29.73 in 0.8 mi NE 9.2 mph 16.1 mph N/A Snow Light Snow
8:56 AM 30.2 °F 21.3 °F 29.7 °F 98% 29.73 in 1.0 mi NE 10.4 mph 18.4 mph N/A Snow Light Snow
9:15 AM 30.2 °F 21.9 °F 29.7 °F 98% 29.72 in 1.0 mi NE 9.2 mph 17.3 mph N/A Snow Light Snow
9:36 AM 30.6 °F 23.1 °F 29.8 °F 97% 29.72 in 1.0 mi NE 8.1 mph 17.3 mph N/A Snow Light Snow
9:56 AM 30.7 °F 23.3 °F 30.0 °F 97% 29.72 in 0.8 mi NNE 8.1 mph - N/A Snow Light Snow
10:16 AM 30.9 °F 22.8 °F 30.0 °F 96% 29.72 in 1.2 mi NE 9.2 mph 16.1 mph N/A Snow Light Snow
10:36 AM 31.5 °F 24.9 °F 30.0 °F 94% 29.71 in 2.0 mi NE 6.9 mph 20.7 mph N/A Snow Light Snow
10:56 AM 31.5 °F 24.2 °F 30.2 °F 95% 29.71 in 3.0 mi NE 8.1 mph 18.4 mph N/A Snow Light Snow
11:16 AM 31.5 °F 24.9 °F 30.2 °F 95% 29.71 in 2.5 mi NE 6.9 mph 17.3 mph N/A Snow Light Snow
11:36 AM 32.0 °F 23.6 °F 30.6 °F 94% 29.70 in 3.0 mi NE 10.4 mph 16.1 mph N/A Snow Light Snow
11:56 AM 32.0 °F 24.8 °F 30.6 °F 94% 29.70 in 4.0 mi NE 8.1 mph 16.1 mph N/A Snow Light Snow
12:16 PM 32.0 °F 24.2 °F 30.7 °F 95% 29.70 in 7.0 mi NE 9.2 mph 16.1 mph N/A   Overcast
12:36 PM 32.0 °F 24.2 °F 30.9 °F 96% 29.70 in 4.0 mi NE 9.2 mph - N/A Snow Light Snow
12:56 PM 32.2 °F 25.8 °F 31.1 °F 96% 29.70 in 7.0 mi NE 6.9 mph - N/A   Overcast
1:16 PM 32.4 °F 26.9 °F 31.1 °F 95% 29.70 in 7.0 mi NE 5.8 mph 16.1 mph N/A   Overcast
1:36 PM 32.5 °F 27.1 °F 31.1 °F 94% 29.69 in 7.0 mi NE 5.8 mph - N/A   Overcast
1:57 PM 32.9 °F 26.7 °F 30.7 °F 92% 29.69 in 10.0 mi NE 6.9 mph 18.4 mph N/A   Overcast
2:16 PM 33.3 °F 27.1 °F 30.4 °F 89% 29.69 in 10.0 mi NE 6.9 mph - N/A   Overcast
2:36 PM 33.3 °F 27.9 °F 30.2 °F 89% 29.69 in 10.0 mi NE 5.8 mph - N/A   Overcast
2:56 PM 33.3 °F 27.1 °F 30.6 °F 90% 29.68 in 7.0 mi NE 6.9 mph - N/A   Overcast
3:16 PM 33.3 °F 25.7 °F 30.6 °F 90% 29.68 in 10.0 mi NE 9.2 mph - N/A   Overcast
3:36 PM 33.8 °F 27.0 °F 30.2 °F 87% 29.68 in 10.0 mi NE 8.1 mph - N/A   Overcast
3:56 PM 33.4 °F 30.4 °F 30.2 °F 88% 29.69 in 10.0 mi NE 3.5 mph - N/A   Overcast
4:16 PM 33.4 °F 29.1 °F 30.6 °F 89% 29.69 in 10.0 mi NE 4.6 mph - N/A   Overcast
4:36 PM 33.8 °F 29.6 °F 30.6 °F 88% 29.69 in 10.0 mi NE 4.6 mph - N/A   Overcast
4:56 PM 33.8 °F 30.8 °F 30.6 °F 88% 29.69 in 10.0 mi NE 3.5 mph - N/A   Overcast
5:16 PM 33.8 °F 28.6 °F 30.7 °F 89% 29.68 in 10.0 mi NE 5.8 mph - N/A   Overcast
5:37 PM 34.0 °F 28.8 °F 30.2 °F 86% 29.69 in 10.0 mi NE 5.8 mph - N/A   Overcast
5:56 PM 34.0 °F 28.0 °F 30.2 °F 86% 29.70 in 10.0 mi NE 6.9 mph - N/A   Overcast
6:16 PM 33.8 °F 27.7 °F 30.6 °F 88% 29.70 in 10.0 mi NE 6.9 mph - N/A   Overcast
6:36 PM 33.8 °F 29.6 °F 30.6 °F 88% 29.70 in 7.0 mi NNE 4.6 mph - N/A   Overcast
6:56 PM 33.1 °F 30.0 °F 30.9 °F 92% 29.71 in 5.0 mi NNE 3.5 mph - N/A Snow Light Snow
7:17 PM 33.4 °F 28.1 °F 30.2 °F 88% 29.71 in 10.0 mi NE 5.8 mph - N/A   Overcast
7:36 PM 33.4 °F 27.3 °F 29.8 °F 87% 29.72 in 10.0 mi NE 6.9 mph - N/A   Overcast
7:56 PM 33.1 °F 27.7 °F 30.0 °F 89% 29.71 in 10.0 mi NE 5.8 mph - N/A   Light Drizzle
8:16 PM 32.9 °F 27.5 °F 29.8 °F 88% 29.71 in 10.0 mi NNE 5.8 mph - N/A   Overcast
8:36 PM 32.7 °F 27.3 °F 30.0 °F 90% 29.70 in 7.0 mi NNE 5.8 mph - N/A   Overcast
9:16 PM 32.7 °F 27.3 °F 30.2 °F 90% 29.70 in 10.0 mi NNE 5.8 mph - N/A   Overcast
9:36 PM 32.9 °F 26.7 °F 30.0 °F 89% 29.70 in 10.0 mi NNE 6.9 mph - N/A   Overcast
9:56 PM 33.1 °F 26.9 °F 30.2 °F 89% 29.70 in 10.0 mi NNE 6.9 mph - N/A   Overcast
10:16 PM 33.3 °F 26.4 °F 30.2 °F 89% 29.70 in 10.0 mi NNE 8.1 mph - N/A   Overcast
10:36 PM 33.3 °F 26.4 °F 30.2 °F 89% 29.70 in 10.0 mi NNE 8.1 mph - N/A   Overcast
10:57 PM 33.4 °F 27.3 °F 30.2 °F 88% 29.70 in 10.0 mi NNE 6.9 mph - N/A   Overcast
11:16 PM 33.4 °F 27.3 °F 30.0 °F 87% 29.70 in 10.0 mi NNE 6.9 mph - N/A   Overcast
11:36 PM 33.4 °F 28.1 °F 30.4 °F 89% 29.69 in 10.0 mi NNE 5.8 mph - N/A Rain Light Rain
11:56 PM 33.4 °F 27.3 °F 30.2 °F 88% 29.69 in 10.0 mi North 6.9 mph - N/A   Overcast